Location: 10048 Water Well
(33.8501°N, 106.8364°W)
Time: 20:57:42
(UTC+00:00)

Daily predictions for brighter satellites

Satellite Brightness Start Highest point End
(mag) Time Altitude Azimuth Time Altitude Azimuth Time Altitude Azimuth
OAO 2 Rocket 3.5 12:05:30 49° SW 12:06:46 68° SSE 12:11:53 10° E
Cosmos 2369 3.6 12:08:44 51° WNW 12:09:53 62° WSW 12:15:27 10° S
NOSS 3-1 (C) 4.3 12:04:55 22° NNW 12:10:31 75° ENE 12:19:50 10° SE
FengYun 1-2 T 4.3 12:09:44 10° N 12:15:15 56° WNW 12:20:44 10° SSW
SL-24 R/B 4.2 12:10:22 10° NNE 12:15:21 83° E 12:19:39 10° S
Cosmos 1898 Rocket 3.4 12:14:12 46° NW 12:15:31 62° WSW 12:20:42 10° S
Cosmos 1726 Rocket 3.3 12:21:17 37° NNW 12:22:53 74° W 12:26:59 10° S
Helios 1A Rocket 4.3 12:20:28 10° SE 12:23:24 29° ENE 12:26:21 10° N
[s.n.66875] 4.2 12:23:29 13° S 12:24:41 16° SE 12:26:25 10° E
IRS-1D 3.4 12:19:43 10° N 12:24:43 65° WNW 12:29:48 10° SSW
[s.n.66873] 4.2 12:24:08 13° S 12:25:23 17° SE 12:27:08 10° E
[s.n.66876] 4.1 12:24:36 13° S 12:25:50 17° SE 12:27:37 10° E
OAO 3 Copernicus 4.2 12:24:51 42° W 12:26:32 81° N 12:31:34 10° E
[s.n.66874] 4.1 12:25:21 13° S 12:26:38 17° SE 12:28:27 10° E
[s.n.66872] 4.1 12:26:07 13° S 12:27:26 18° SE 12:29:16 10° E
[s.n.66871] 4.1 12:26:38 13° S 12:27:59 18° SE 12:29:49 10° E
Cosmos 1627 Rocket 4.3 12:22:35 10° SSW 12:28:40 73° W 12:34:47 10° N
[s.n.66870] 4.1 12:27:24 13° S 12:28:48 18° SE 12:30:41 10° E
Tiangong -1.9 12:29:07 56° SSW 12:29:08 56° SSW 12:32:17 10° SE
[s.n.66869] 4.1 12:28:10 13° S 12:29:36 19° SE 12:31:29 10° E
Cosmos 2360 Rocket 3.8 12:24:48 10° N 12:29:48 32° ENE 12:34:47 10° SE
[s.n.66868] 4.1 12:28:45 13° S 12:30:12 19° SE 12:32:07 10° E
[s.n.66867] 4.0 12:29:31 13° S 12:31:00 19° SE 12:32:56 10° E
[s.n.66866] 4.0 12:30:13 13° S 12:31:44 20° SE 12:33:42 10° E
[s.n.66865] 4.0 12:30:44 13° S 12:32:17 20° SE 12:34:16 10° E
CZ-4 R/B 3.7 12:28:20 10° N 12:32:53 59° WNW 12:37:24 10° SSW
[s.n.66860] 4.0 12:31:22 12° S 12:32:57 20° SE 12:34:57 10° E
Cosmos 405 Rocket 3.4 12:29:53 10° SSE 12:32:58 44° E 12:36:07 10° NNE
OAO 3 Rocket 3.4 12:30:37 25° WSW 12:33:09 64° SSE 12:37:49 10° E
[s.n.66864] 3.9 12:31:58 12° S 12:33:35 20° SE 12:35:35 10° E
COSMO-SKYMED 1 3.0 12:29:55 10° SSE 12:33:57 59° ENE 12:38:00 10° N
[s.n.66863] 3.9 12:32:32 12° S 12:34:11 21° SE 12:36:12 10° E
Cosmos 1626 Rocket 4.4 12:29:55 10° S 12:34:13 53° E 12:38:30 10° NNE
Cosmos 1937 Rocket 3.5 12:31:53 26° NW 12:34:38 56° WSW 12:39:38 10° S
[s.n.66861] 3.9 12:33:20 12° S 12:35:01 21° SE 12:37:03 10° E
[s.n.66862] 3.8 12:33:56 12° SSW 12:35:39 21° SE 12:37:42 10° E
Cosmos 2333 Rocket 2.8 12:30:31 10° NNW 12:36:11 57° ENE 12:41:47 10° SE
[s.n.66859] 3.8 12:34:37 12° SSW 12:36:21 22° SE 12:38:26 10° E
Cosmos 858 Rocket 4.4 12:32:30 15° NNW 12:36:47 80° WSW 12:41:57 10° SSE
[s.n.66858] 3.8 12:35:14 12° SSW 12:37:01 22° SE 12:39:07 10° E
Cosmos-2242 3.4 12:33:02 10° N 12:37:13 62° E 12:41:20 10° SSE
[s.n.66857] 3.8 12:35:49 12° SSW 12:37:36 22° SE 12:39:43 10° E
[s.n.66856] 3.7 12:36:21 12° SSW 12:38:09 23° SE 12:40:17 10° E
USA 59 Rocket 0.7 12:36:57 33° WNW 12:38:30 46° WSW 12:44:04 10° S
[s.n.66855] 3.7 12:36:59 12° SSW 12:38:50 23° SE 12:40:59 10° E
NOSS 2-1 (D) 4.0 12:37:28 33° WNW 12:39:08 49° WSW 12:44:39 10° SSE
[s.n.66854] 3.7 12:37:33 12° SSW 12:39:25 24° SE 12:41:35 10° E
Cosmos 1892 Rocket 4.1 12:35:53 10° SW 12:39:51 34° W 12:43:51 10° NNW
[s.n.66853] 3.7 12:38:14 12° SSW 12:40:09 24° SE 12:42:19 10° E
[s.n.66852] 3.6 12:38:58 12° SSW 12:40:54 24° SE 12:43:05 10° E
Okean 1 3.7 12:37:35 10° N 12:41:04 54° E 12:44:33 10° SSE
[s.n.66851] 3.6 12:39:28 11° SSW 12:41:26 25° SE 12:43:37 10° E
[s.n.66850] 3.6 12:40:00 11° SSW 12:41:58 25° SE 12:44:11 10° E
[s.n.66849] 3.5 12:40:40 11° SSW 12:42:41 26° SE 12:44:54 10° E
[s.n.66848] 3.5 12:41:10 11° SSW 12:43:14 26° SE 12:45:27 10° E
Cosmos 2219 Rocket 4.1 12:41:39 10° N 12:46:20 26° ENE 12:50:57 10° ESE
PKM 3.8 12:47:23 33° W 12:47:56 38° SW 12:50:41 10° SSE
COSMOS 2455 3.6 12:47:28 22° WNW 12:50:14 32° WSW 12:55:28 10° SSW
Cosmos 2026 Rocket 4.2 12:45:15 10° SSW 12:50:56 43° W 12:56:43 10° N
IGS 5A 3.7 12:48:08 10° NNE 12:52:07 67° E 12:56:05 10° S
NOSS 2-1 (E) 4.1 12:50:25 23° WNW 12:52:47 46° WSW 12:58:14 10° S
Cosmos 2322 Rocket 2.7 12:48:39 10° NNW 12:54:16 61° ENE 12:59:51 10° SSE
Cosmos 1814 Rocket 4.1 12:49:44 10° SSW 12:54:48 53° WNW 12:59:57 10° N
IRIDIUM 104 4.5 12:50:47 10° S 12:55:58 78° E 13:01:12 10° N
ATLAS 2AS CENTAUR R/B 2.8 12:48:53 10° SSW 12:56:02 88° ESE 13:03:00 10° NNE
Centaur AC-119 4.0 12:53:06 11° WSW 12:57:43 36° S 13:02:12 10° ESE
Meteor 2-2 Rocket 4.2 12:52:39 10° NNW 12:58:23 76° W 13:04:13 10° S
IRIDIUM 114 4.3 12:59:53 10° S 13:05:05 85° W 13:10:20 10° N
CBERS-1 4.0 13:05:31 10° NNE 13:10:37 86° WNW 13:15:41 10° SSW
Cosmos 1602 Rocket 3.8 13:08:37 10° S 13:13:02 77° E 13:17:29 10° N
IRIDIUM 103 4.3 13:09:05 10° S 13:14:15 68° W 13:19:28 10° N
SMAP 3.6 13:10:29 10° NNE 13:15:07 64° E 13:19:43 10° S
Cosmos 158 Rocket 4.5 13:13:22 10° SW 13:18:19 38° WNW 13:23:13 10° N
NOSS 3-1 (A) 4.3 13:11:43 10° NNW 13:19:34 87° WSW 13:28:59 10° SSE
SL-16 R/B 2.8 13:17:44 10° NW 13:22:56 38° WSW 13:28:06 10° S
Cosmos 44 3.7 13:19:28 10° SSW 13:23:49 63° ESE 13:28:29 10° NE
Cosmos 2058 Rocket 3.9 13:20:49 10° NNW 13:24:38 29° W 13:28:25 10° SSW
Cosmos 1553 Rocket 4.1 13:19:05 10° NNW 13:25:27 70° W 13:31:48 10° S
CZ-3 R/B 4.0 13:16:59 10° W 13:27:09 20° SW 13:32:23 10° S
Cosmos 2151 2.8 13:25:13 10° SSW 13:29:15 68° W 13:33:20 10° N
Thor Agena Rocket 3.4 13:27:35 10° N 13:32:37 78° WNW 13:37:37 10° SSW
Cosmos 1743 2.9 13:30:06 10° SSW 13:33:03 33° W 13:36:03 10° NNW
